sat.trackr.live / text

‹ back to catalog

STARLINK-35397

NORAD 65825 · 2025-221C

PAYLOAD ACTIVE UNKNOWN

§ Identity

Operator
Country
US
Launch date
2025-09-29
Launch site
AFWTR
Launch vehicle
Mass (kg)
RCS (m²)

Purposes: comms

External: N2YO · Heavens-Above · Gunter

§ Orbital elements

Epoch: 2026-05-25T03:14:57.081696Z

Period
93.85 min
Inclination
53.1590°
Eccentricity
0.0001230
Mean motion
15.34406907 rev/d
Perigee alt
461.8 km
Apogee alt
463.5 km
Semi-major
6,840.8 km
B*
8.5814e-4
RAAN
92.8343°
Arg perigee
89.2213°
Mean anomaly
270.8931°
Rev number
3,779

§ Raw data

STARLINK-353971 65825U 25221C   26145.13538289  .00028735  00000+0  85814-3 0  99982 65825  53.1590  92.8343 0001230  89.2213 270.8931 15.34406907 37796

JSON: /api/v1/satellites/65825 · /tle

For live sub-satellite position, see the globe view (requires WebGL).

§ Visibility from observer

Set your observer location to see the next 7 days of passes ≥ 10°. The values pass through the URL so the page stays shareable.

No JS? Fill the form by hand. The geolocation button needs JavaScript.